CFG2XU EDDF-EDDB

Flight info

Callsign CFG2XU
Flight time 0h 45m
Altitude 31000
Route TOBAK3W/25C TOBAK N858 SWALM T201 TAMEB T278 KLF
Aircraft A320/M-SDE3FGHIRWY/LB1

Departure

Time 2026-05-05 18:35
Airport Frankfurt Main Airport (EDDF)

Arrival

Time 2026-05-05 19:20
Airport Berlin Brandenburg Airport (EDDB)
Time Latitude Longitude Altitude Speed Heading
2026-05-05 18:02 50.04929 8.59256 365 ft 0 kts 339°
2026-05-05 18:23 50.04928 8.59256 365 ft 1 kts 339°
2026-05-05 18:24 50.04912 8.59266 369 ft 3 kts 346°
2026-05-05 18:24 50.04894 8.59264 369 ft 3 kts 30°
2026-05-05 18:24 50.04879 8.59251 367 ft 3 kts 23°
2026-05-05 18:24 50.04859 8.59241 368 ft 3 kts 357°
2026-05-05 18:25 50.04842 8.59247 368 ft 3 kts 339°
2026-05-05 18:25 50.04838 8.59249 368 ft 1 kts 339°
2026-05-05 18:28 50.04844 8.59240 368 ft 3 kts 315°
2026-05-05 18:28 50.04843 8.59210 374 ft 3 kts 247°
2026-05-05 18:28 50.04826 8.59168 368 ft 5 kts 239°
2026-05-05 18:29 50.04802 8.59081 368 ft 11 kts 250°
2026-05-05 18:29 50.04776 8.58972 369 ft 10 kts 249°
2026-05-05 18:29 50.04756 8.58890 371 ft 3 kts 249°
2026-05-05 18:29 50.04751 8.58870 371 ft 1 kts 249°
2026-05-05 18:30 50.04751 8.58869 370 ft 0 kts 249°
2026-05-05 18:31 50.04739 8.58820 371 ft 6 kts 249°
2026-05-05 18:31 50.04719 8.58776 370 ft 5 kts 217°
2026-05-05 18:31 50.04699 8.58767 370 ft 1 kts 187°
2026-05-05 18:32 50.04656 8.58759 370 ft 11 kts 187°
2026-05-05 18:32 50.04600 8.58734 371 ft 7 kts 212°
2026-05-05 18:32 50.04559 8.58683 371 ft 10 kts 219°
2026-05-05 18:32 50.04496 8.58617 371 ft 11 kts 226°
2026-05-05 18:33 50.04481 8.58567 370 ft 0 kts 249°
2026-05-05 18:35 50.04477 8.58550 370 ft 16 kts 249°
2026-05-05 18:35 50.04328 8.57928 364 ft 103 kts 250°
2026-05-05 18:35 50.03990 8.56506 383 ft 171 kts 250°
2026-05-05 18:35 50.03562 8.54804 1317 ft 164 kts 247°
2026-05-05 18:36 50.03182 8.53225 2513 ft 148 kts 251°
2026-05-05 18:36 50.02826 8.51697 3393 ft 157 kts 250°
2026-05-05 18:36 50.02320 8.50069 3876 ft 178 kts 234°
2026-05-05 18:36 50.01378 8.48699 4182 ft 198 kts 211°
2026-05-05 18:37 50.00053 8.47980 4739 ft 207 kts 191°
2026-05-05 18:37 49.98611 8.47658 4968 ft 209 kts 190°
2026-05-05 18:37 49.97172 8.47340 5002 ft 208 kts 190°
2026-05-05 18:37 49.95755 8.46929 5015 ft 210 kts 199°
2026-05-05 18:38 49.94331 8.46256 5251 ft 235 kts 198°
2026-05-05 18:38 49.92788 8.45500 5999 ft 240 kts 205°
2026-05-05 18:38 49.91449 8.44013 6805 ft 242 kts 231°
2026-05-05 18:38 49.90698 8.41691 7623 ft 246 kts 257°
2026-05-05 18:39 49.90750 8.39029 8453 ft 253 kts 285°
2026-05-05 18:39 49.91625 8.36692 9256 ft 262 kts 313°
2026-05-05 18:39 49.93126 8.35222 10021 ft 272 kts 333°
2026-05-05 18:39 49.94898 8.34048 10355 ft 295 kts 334°
2026-05-05 18:40 49.96653 8.32915 10589 ft 316 kts 334°
2026-05-05 18:40 49.98268 8.31879 10753 ft 334 kts 335°
2026-05-05 18:40 49.99149 8.31314 10838 ft 344 kts 335°
2026-05-05 18:40 50.01455 8.29914 11208 ft 360 kts 340°
2026-05-05 18:41 50.03767 8.29169 11803 ft 369 kts 352°
2026-05-05 18:41 50.06345 8.29128 12505 ft 376 kts
2026-05-05 18:41 50.08739 8.29823 13147 ft 383 kts 14°
2026-05-05 18:41 50.11365 8.31113 13837 ft 387 kts 16°
2026-05-05 18:42 50.13777 8.32363 14436 ft 390 kts 18°
2026-05-05 18:42 50.16333 8.33723 15050 ft 393 kts 18°
2026-05-05 18:42 50.18945 8.35124 15660 ft 397 kts 18°
2026-05-05 18:42 50.21555 8.36523 16273 ft 401 kts 19°
2026-05-05 18:43 50.24187 8.37926 16884 ft 404 kts 19°
2026-05-05 18:43 50.26850 8.39386 17483 ft 408 kts 22°
2026-05-05 18:43 50.29373 8.41378 18076 ft 411 kts 32°
2026-05-05 18:43 50.31672 8.44045 18590 ft 413 kts 42°
2026-05-05 18:44 50.33821 8.47025 19149 ft 416 kts 43°
2026-05-05 18:44 50.35985 8.50035 19740 ft 417 kts 43°
2026-05-05 18:44 50.38158 8.53057 20306 ft 418 kts 43°
2026-05-05 18:44 50.40340 8.56097 20839 ft 421 kts 43°
2026-05-05 18:45 50.42530 8.59152 21356 ft 423 kts 44°
2026-05-05 18:45 50.44610 8.62412 21835 ft 423 kts 54°
2026-05-05 18:45 50.46158 8.66320 22312 ft 423 kts 63°
2026-05-05 18:45 50.47586 8.70380 22782 ft 425 kts 63°
2026-05-05 18:46 50.49010 8.74459 23236 ft 428 kts 63°
2026-05-05 18:46 50.50438 8.78571 23635 ft 430 kts 63°
2026-05-05 18:46 50.51874 8.82714 23998 ft 432 kts 64°
2026-05-05 18:46 50.53311 8.86867 24368 ft 434 kts 64°
2026-05-05 18:47 50.54760 8.91051 24712 ft 437 kts 64°
2026-05-05 18:47 50.56217 8.95253 25029 ft 440 kts 64°
2026-05-05 18:47 50.57683 8.99493 25364 ft 442 kts 64°
2026-05-05 18:47 50.59149 9.03744 25708 ft 444 kts 64°
2026-05-05 18:48 50.60624 9.08024 26048 ft 446 kts 64°
2026-05-05 18:48 50.62105 9.12328 26372 ft 447 kts 64°
2026-05-05 18:48 50.63577 9.16618 26695 ft 449 kts 64°
2026-05-05 18:48 50.65056 9.20947 27002 ft 451 kts 64°
2026-05-05 18:49 50.66042 9.23839 27201 ft 452 kts 64°
2026-05-05 18:49 50.67531 9.28214 27495 ft 454 kts 64°
2026-05-05 18:49 50.69025 9.32603 27784 ft 455 kts 64°
2026-05-05 18:49 50.70528 9.37012 28041 ft 457 kts 64°
2026-05-05 18:50 50.72040 9.41452 28281 ft 459 kts 65°
2026-05-05 18:50 50.73550 9.45901 28533 ft 461 kts 65°
2026-05-05 18:50 50.75059 9.50361 28774 ft 462 kts 65°
2026-05-05 18:50 50.76577 9.54856 29094 ft 462 kts 65°
2026-05-05 18:51 50.78082 9.59321 29445 ft 460 kts 65°
2026-05-05 18:51 50.79586 9.63783 29803 ft 459 kts 65°
2026-05-05 18:51 50.81084 9.68239 30105 ft 458 kts 65°
2026-05-05 18:51 50.82576 9.72684 30405 ft 457 kts 65°
2026-05-05 18:52 50.84066 9.77131 30684 ft 457 kts 65°
2026-05-05 18:52 50.85549 9.81567 30790 ft 456 kts 65°
2026-05-05 18:52 50.88508 9.90437 30810 ft 455 kts 66°
2026-05-05 18:53 50.91460 9.99323 30805 ft 457 kts 66°
2026-05-05 18:53 50.94429 10.08302 30807 ft 462 kts 66°
2026-05-05 18:54 50.97410 10.17340 30810 ft 462 kts 66°
2026-05-05 18:54 51.00387 10.26380 30805 ft 462 kts 66°
2026-05-05 18:55 51.03353 10.35433 30807 ft 462 kts 66°
2026-05-05 18:55 51.06308 10.44492 30807 ft 461 kts 66°
2026-05-05 18:56 51.09254 10.53558 30784 ft 462 kts 66°
2026-05-05 18:56 51.12203 10.62661 30780 ft 464 kts 67°
2026-05-05 18:57 51.15161 10.71836 30783 ft 467 kts 67°
2026-05-05 18:57 51.18136 10.81061 30786 ft 469 kts 66°
2026-05-05 18:58 51.21106 10.90317 30789 ft 469 kts 67°
2026-05-05 18:58 51.24059 10.99607 30795 ft 469 kts 67°
2026-05-05 18:59 51.27009 11.08912 30748 ft 471 kts 66°
2026-05-05 18:59 51.28483 11.13555 30505 ft 472 kts 66°
2026-05-05 18:59 51.29974 11.18255 30259 ft 477 kts 66°
2026-05-05 19:00 51.31475 11.22998 30019 ft 479 kts 66°
2026-05-05 19:00 51.32975 11.27758 29754 ft 480 kts 66°
2026-05-05 19:00 51.34473 11.32523 29466 ft 481 kts 66°
2026-05-05 19:00 51.35974 11.37298 29189 ft 481 kts 66°
2026-05-05 19:01 51.37480 11.42092 28913 ft 482 kts 66°
2026-05-05 19:01 51.38980 11.46880 28630 ft 482 kts 66°
2026-05-05 19:01 51.40483 11.51691 28364 ft 483 kts 66°
2026-05-05 19:01 51.41983 11.56508 27934 ft 484 kts 66°
2026-05-05 19:02 51.43482 11.61334 27386 ft 485 kts 66°
2026-05-05 19:02 51.44985 11.66183 26866 ft 486 kts 65°
2026-05-05 19:02 51.46489 11.71044 26361 ft 487 kts 65°
2026-05-05 19:02 51.47983 11.75867 25854 ft 479 kts 65°
2026-05-05 19:03 51.49443 11.80578 25360 ft 468 kts 65°
2026-05-05 19:03 51.50874 11.85215 24875 ft 460 kts 65°
2026-05-05 19:03 51.52275 11.89773 24395 ft 452 kts 65°
2026-05-05 19:03 51.53649 11.94263 23925 ft 444 kts 65°
2026-05-05 19:04 51.55001 11.98694 23455 ft 438 kts 65°
2026-05-05 19:04 51.56333 12.03058 22933 ft 432 kts 65°
2026-05-05 19:04 51.57649 12.07367 22396 ft 428 kts 65°
2026-05-05 19:04 51.58983 12.11618 21862 ft 424 kts 60°
2026-05-05 19:05 51.60777 12.15346 21329 ft 422 kts 45°
2026-05-05 19:05 51.62906 12.18547 20912 ft 416 kts 43°
2026-05-05 19:05 51.65018 12.21663 20798 ft 407 kts 43°
2026-05-05 19:05 51.67110 12.24734 20818 ft 406 kts 43°
2026-05-05 19:06 51.69196 12.27793 20785 ft 407 kts 43°
2026-05-05 19:06 51.71295 12.30880 20229 ft 407 kts 43°
2026-05-05 19:06 51.73374 12.33949 19786 ft 403 kts 43°
2026-05-05 19:06 51.75432 12.36998 19356 ft 400 kts 43°
2026-05-05 19:07 51.77469 12.40024 18929 ft 396 kts 43°
2026-05-05 19:07 51.79486 12.43025 18498 ft 393 kts 43°
2026-05-05 19:07 51.81487 12.46005 18023 ft 390 kts 43°
2026-05-05 19:07 51.83484 12.48983 17353 ft 392 kts 43°
2026-05-05 19:08 51.85482 12.51970 16688 ft 386 kts 43°
2026-05-05 19:08 51.87425 12.54877 16049 ft 375 kts 43°
2026-05-05 19:08 51.89311 12.57697 15421 ft 365 kts 43°
2026-05-05 19:08 51.91151 12.60452 14809 ft 356 kts 43°
2026-05-05 19:09 51.92954 12.63157 14209 ft 351 kts 43°
2026-05-05 19:09 51.94756 12.65862 13618 ft 355 kts 43°
2026-05-05 19:09 51.96567 12.68582 13046 ft 352 kts 43°
2026-05-05 19:09 51.98327 12.71231 12500 ft 340 kts 43°
2026-05-05 19:10 52.00028 12.73794 11967 ft 329 kts 43°
2026-05-05 19:10 52.01682 12.76284 11433 ft 319 kts 43°
2026-05-05 19:10 52.03288 12.78702 10922 ft 311 kts 43°
2026-05-05 19:10 52.04853 12.81066 10374 ft 304 kts 43°
2026-05-05 19:11 52.06392 12.83396 9843 ft 300 kts 43°
2026-05-05 19:11 52.07915 12.85705 9275 ft 301 kts 42°
2026-05-05 19:11 52.09455 12.88037 8769 ft 303 kts 43°
2026-05-05 19:11 52.10982 12.90352 8274 ft 296 kts 43°
2026-05-05 19:12 52.12463 12.92600 7793 ft 286 kts 43°
2026-05-05 19:12 52.13890 12.94774 7320 ft 276 kts 43°
2026-05-05 19:12 52.15268 12.96873 6894 ft 267 kts 43°
2026-05-05 19:12 52.16591 12.98885 6503 ft 256 kts 43°
2026-05-05 19:13 52.17870 13.00833 6107 ft 246 kts 43°
2026-05-05 19:13 52.19101 13.02705 5702 ft 239 kts 44°
2026-05-05 19:13 52.20300 13.04531 5295 ft 233 kts 44°
2026-05-05 19:13 52.21459 13.06301 4997 ft 222 kts 44°
2026-05-05 19:14 52.22557 13.07977 4802 ft 209 kts 44°
2026-05-05 19:14 52.23584 13.09546 4624 ft 195 kts 44°
2026-05-05 19:14 52.24541 13.11009 4462 ft 183 kts 44°
2026-05-05 19:14 52.25462 13.12421 4381 ft 181 kts 44°
2026-05-05 19:15 52.26361 13.13842 4284 ft 179 kts 52°
2026-05-05 19:15 52.26974 13.15584 4154 ft 177 kts 66°
2026-05-05 19:15 52.27463 13.17415 3965 ft 176 kts 68°
2026-05-05 19:15 52.27926 13.19272 3714 ft 177 kts 68°
2026-05-05 19:16 52.28378 13.21127 3476 ft 175 kts 68°
2026-05-05 19:16 52.28825 13.22975 3238 ft 174 kts 69°
2026-05-05 19:16 52.29264 13.24799 3014 ft 173 kts 69°
2026-05-05 19:16 52.29702 13.26617 2789 ft 171 kts 69°
2026-05-05 19:17 52.30130 13.28397 2560 ft 169 kts 68°
2026-05-05 19:17 52.30555 13.30167 2343 ft 167 kts 69°
2026-05-05 19:17 52.30973 13.31909 2114 ft 159 kts 68°
2026-05-05 19:17 52.31357 13.33513 1919 ft 144 kts 68°
2026-05-05 19:18 52.31709 13.34981 1725 ft 135 kts 68°
2026-05-05 19:18 52.32046 13.36389 1540 ft 133 kts 68°
2026-05-05 19:18 52.32380 13.37784 1362 ft 131 kts 68°
2026-05-05 19:18 52.32713 13.39178 1175 ft 132 kts 67°
2026-05-05 19:19 52.33045 13.40565 1005 ft 131 kts 68°
2026-05-05 19:19 52.33374 13.41945 832 ft 130 kts 68°
2026-05-05 19:19 52.33706 13.43331 643 ft 131 kts 68°
2026-05-05 19:19 52.34041 13.44719 471 ft 131 kts 66°
2026-05-05 19:20 52.34364 13.46099 305 ft 130 kts 66°
2026-05-05 19:20 52.34690 13.47470 164 ft 126 kts 68°
2026-05-05 19:20 52.34964 13.48606 154 ft 84 kts 69°
2026-05-05 19:20 52.35113 13.49235 154 ft 38 kts 68°
2026-05-05 19:21 52.35202 13.49608 154 ft 33 kts 69°
2026-05-05 19:21 52.35297 13.49872 154 ft 20 kts 45°
2026-05-05 19:21 52.35371 13.49987 154 ft 12 kts 41°
2026-05-05 19:21 52.35424 13.50059 154 ft 8 kts 38°
2026-05-05 19:22 52.35453 13.50095 154 ft 1 kts 36°
2026-05-05 19:22 52.35473 13.50120 154 ft 7 kts 38°
2026-05-05 19:22 52.35517 13.50177 154 ft 9 kts 39°
2026-05-05 19:22 52.35574 13.50254 154 ft 12 kts 40°
2026-05-05 19:23 52.35620 13.50381 154 ft 14 kts 69°
2026-05-05 19:23 52.35657 13.50541 154 ft 16 kts 69°
2026-05-05 19:23 52.35699 13.50719 154 ft 14 kts 69°
2026-05-05 19:23 52.35746 13.50831 154 ft 12 kts 18°
2026-05-05 19:24 52.35813 13.50800 154 ft 7 kts 338°
2026-05-05 19:24 52.35834 13.50786 154 ft 3 kts 338°
2026-05-05 19:24 52.35848 13.50778 155 ft 2 kts 338°
2026-05-05 19:24 52.35849 13.50777 155 ft 0 kts 338°
2026-05-05 19:28 52.35849 13.50776 155 ft 0 kts 338°
2026-05-05 19:28 52.35876 13.50759 155 ft 5 kts 342°
2026-05-05 19:29 52.35909 13.50797 155 ft 7 kts 59°
2026-05-05 19:29 52.35930 13.50879 155 ft 8 kts 69°
2026-05-05 19:29 52.35954 13.50980 155 ft 11 kts 69°
2026-05-05 19:29 52.35975 13.51070 155 ft 0 kts 68°
2026-05-05 19:30 52.35982 13.51090 155 ft 3 kts 50°
2026-05-05 19:30 52.36016 13.51081 155 ft 7 kts 336°
2026-05-05 19:30 52.36043 13.51064 155 ft 6 kts 339°
2026-05-05 19:30 52.36062 13.51052 155 ft 0 kts 339°